Time,TemperatureF,DewpointF,PressureIn,WindDirection,WindDirectionDegrees,WindSpeedMPH,WindSpeedGustMPH,Humidity,HourlyPrecipIn,Conditions,Clouds,dailyrainin,SoftwareType,DateUTC
2013-03-29 00:00:00,48.1,44.1,30.27,ENE,60,0.0,0.0,86,0.00,,---,0.00,VWS V14.01,2013-03-29 04:00:00,
2013-03-29 00:05:00,48.0,44.3,30.27,ENE,61,0.0,0.0,87,0.00,,---,0.00,VWS V14.01,2013-03-29 04:05:00,
2013-03-29 00:10:00,47.9,44.2,30.27,ENE,61,0.0,0.0,87,0.00,,---,0.00,VWS V14.01,2013-03-29 04:10:00,
2013-03-29 00:15:00,47.7,44.0,30.27,ENE,60,0.0,0.0,87,0.00,,---,0.00,VWS V14.01,2013-03-29 04:15:00,
2013-03-29 00:20:00,47.5,44.1,30.27,ENE,60,0.0,0.0,88,0.00,,---,0.00,VWS V14.01,2013-03-29 04:20:00,
2013-03-29 00:25:00,47.4,44.0,30.27,ENE,61,0.0,0.0,88,0.00,,---,0.00,VWS V14.01,2013-03-29 04:25:00,
2013-03-29 00:31:00,47.3,44.2,30.27,ENE,61,0.0,0.0,89,0.00,,---,0.00,VWS V14.01,2013-03-29 04:31:00,
2013-03-29 00:36:00,47.1,43.7,30.27,ENE,60,0.0,0.0,88,0.00,,---,0.00,VWS V14.01,2013-03-29 04:36:00,
2013-03-29 00:41:00,46.8,43.4,30.27,ENE,61,0.0,0.0,88,0.00,,---,0.00,VWS V14.01,2013-03-29 04:41:00,
2013-03-29 00:46:00,46.9,43.8,30.27,ENE,61,0.0,0.0,89,0.00,,---,0.00,VWS V14.01,2013-03-29 04:46:00,
2013-03-29 00:51:00,46.9,44.1,30.27,ENE,61,0.0,0.0,90,0.00,,---,0.00,VWS V14.01,2013-03-29 04:51:00,
2013-03-29 00:56:00,46.9,44.1,30.27,ENE,61,0.0,0.0,90,0.00,,---,0.00,VWS V14.01,2013-03-29 04:56:00,
2013-03-29 01:01:00,46.8,43.7,30.27,ENE,61,0.0,0.0,89,0.00,,---,0.00,VWS V14.01,2013-03-29 05:01:00,
2013-03-29 01:06:00,46.5,43.4,30.27,ENE,60,0.0,0.0,89,0.00,,---,0.00,VWS V14.01,2013-03-29 05:06:00,
2013-03-29 01:11:00,46.4,43.6,30.27,ENE,61,0.0,0.0,90,0.00,,---,0.00,VWS V14.01,2013-03-29 05:11:00,
2013-03-29 01:17:00,46.4,43.9,30.27,ENE,61,0.0,0.0,91,0.00,,---,0.00,VWS V14.01,2013-03-29 05:17:00,
2013-03-29 01:22:00,46.4,43.9,30.27,ENE,61,0.0,0.0,91,0.00,,---,0.00,VWS V14.01,2013-03-29 05:22:00,
2013-03-29 01:27:00,46.4,44.2,30.27,ENE,60,0.0,0.0,92,0.00,,---,0.00,VWS V14.01,2013-03-29 05:27:00,
2013-03-29 01:32:00,46.5,44.3,30.27,ENE,61,0.0,0.0,92,0.00,,---,0.00,VWS V14.01,2013-03-29 05:32:00,
2013-03-29 01:37:00,46.6,44.4,30.27,ENE,61,0.0,0.0,92,0.00,,---,0.00,VWS V14.01,2013-03-29 05:37:00,
2013-03-29 01:42:00,46.7,44.8,30.27,ENE,61,0.0,0.0,93,0.00,,---,0.00,VWS V14.01,2013-03-29 05:42:00,
2013-03-29 01:47:00,46.7,44.8,30.27,ENE,61,0.0,0.0,93,0.00,,---,0.00,VWS V14.01,2013-03-29 05:47:00,
2013-03-29 01:52:00,46.9,45.0,30.26,ENE,61,0.0,0.0,93,0.00,,---,0.00,VWS V14.01,2013-03-29 05:52:00,
2013-03-29 01:57:00,47.0,45.1,30.26,ENE,61,0.0,0.0,93,0.00,,---,0.00,VWS V14.01,2013-03-29 05:57:00,
2013-03-29 02:02:00,47.1,45.2,30.26,ENE,61,0.0,0.0,93,0.00,,---,0.00,VWS V14.01,2013-03-29 06:02:00,
2013-03-29 02:07:00,47.1,45.2,30.26,ENE,61,0.0,0.0,93,0.00,,---,0.00,VWS V14.01,2013-03-29 06:07:00,
2013-03-29 02:12:00,47.1,45.2,30.26,ENE,60,0.0,0.0,93,0.00,,---,0.00,VWS V14.01,2013-03-29 06:12:00,
2013-03-29 02:17:00,47.1,45.2,30.26,ENE,61,0.0,0.0,93,0.00,,---,0.00,VWS V14.01,2013-03-29 06:17:00,
2013-03-29 02:22:00,47.1,45.2,30.26,NNW,339,0.0,1.0,93,0.00,,---,0.00,VWS V14.01,2013-03-29 06:22:00,
2013-03-29 02:27:00,47.3,45.4,30.26,NW,304,0.0,1.0,93,0.00,,---,0.00,VWS V14.01,2013-03-29 06:27:00,
2013-03-29 02:32:00,47.3,45.4,30.26,NW,307,0.0,0.0,93,0.00,,---,0.00,VWS V14.01,2013-03-29 06:32:00,
2013-03-29 02:37:00,47.2,45.3,30.26,NW,307,0.0,0.0,93,0.00,,---,0.00,VWS V14.01,2013-03-29 06:37:00,
2013-03-29 02:42:00,47.2,45.3,30.26,NW,305,0.0,0.0,93,0.00,,---,0.00,VWS V14.01,2013-03-29 06:42:00,
2013-03-29 02:48:00,47.2,45.3,30.26,NW,305,0.0,0.0,93,0.00,,---,0.00,VWS V14.01,2013-03-29 06:48:00,
2013-03-29 02:53:00,47.3,45.7,30.25,NW,305,0.0,0.0,94,0.00,,---,0.00,VWS V14.01,2013-03-29 06:53:00,
2013-03-29 02:58:00,47.4,45.5,30.25,NW,307,0.0,0.0,93,0.00,,---,0.00,VWS V14.01,2013-03-29 06:58:00,
2013-03-29 03:03:00,47.4,45.5,30.25,NW,307,0.0,0.0,93,0.00,,---,0.00,VWS V14.01,2013-03-29 07:03:00,
2013-03-29 03:08:00,47.5,45.6,30.25,NW,305,0.0,0.0,93,0.00,,---,0.00,VWS V14.01,2013-03-29 07:08:00,
2013-03-29 03:13:00,47.5,45.6,30.25,NW,307,0.0,0.0,93,0.00,,---,0.00,VWS V14.01,2013-03-29 07:13:00,
2013-03-29 03:18:00,47.4,45.5,30.25,NW,307,0.0,0.0,93,0.00,,---,0.00,VWS V14.01,2013-03-29 07:18:00,
2013-03-29 03:23:00,47.3,45.4,30.25,NW,307,0.0,0.0,93,0.00,,---,0.00,VWS V14.01,2013-03-29 07:23:00,
2013-03-29 03:28:00,47.1,45.2,30.25,NW,305,0.0,0.0,93,0.00,,---,0.00,VWS V14.01,2013-03-29 07:28:00,
2013-03-29 03:33:00,47.0,45.1,30.25,NW,307,0.0,0.0,93,0.00,,---,0.00,VWS V14.01,2013-03-29 07:33:00,
2013-03-29 03:38:00,46.9,45.0,30.25,NW,307,0.0,0.0,93,0.00,,---,0.00,VWS V14.01,2013-03-29 07:38:00,
2013-03-29 03:43:00,46.7,44.8,30.25,NW,308,0.0,0.0,93,0.00,,---,0.00,VWS V14.01,2013-03-29 07:43:00,
2013-03-29 03:48:00,46.7,45.1,30.25,NW,308,0.0,0.0,94,0.00,,---,0.00,VWS V14.01,2013-03-29 07:48:00,
2013-03-29 03:53:00,46.7,45.1,30.25,NW,308,0.0,0.0,94,0.00,,---,0.00,VWS V14.01,2013-03-29 07:53:00,
2013-03-29 03:59:00,46.7,45.1,30.25,NW,308,0.0,0.0,94,0.00,,---,0.00,VWS V14.01,2013-03-29 07:59:00,
2013-03-29 04:04:00,46.5,44.9,30.25,NW,308,0.0,0.0,94,0.00,,---,0.00,VWS V14.01,2013-03-29 08:04:00,
2013-03-29 04:09:00,46.5,44.9,30.25,NW,308,0.0,0.0,94,0.00,,---,0.00,VWS V14.01,2013-03-29 08:09:00,
2013-03-29 04:14:00,46.7,45.3,30.25,NW,308,0.0,0.0,95,0.00,,---,0.00,VWS V14.01,2013-03-29 08:14:00,
2013-03-29 04:19:00,46.7,45.3,30.25,NW,308,0.0,0.0,95,0.00,,---,0.00,VWS V14.01,2013-03-29 08:19:00,
2013-03-29 04:24:00,46.9,45.5,30.25,NW,308,0.0,0.0,95,0.00,,---,0.00,VWS V14.01,2013-03-29 08:24:00,
2013-03-29 04:29:00,46.8,45.5,30.25,NW,307,0.0,0.0,95,0.00,,---,0.00,VWS V14.01,2013-03-29 08:29:00,
2013-03-29 04:34:00,46.7,45.3,30.25,NW,308,0.0,0.0,95,0.00,,---,0.00,VWS V14.01,2013-03-29 08:34:00,
2013-03-29 04:39:00,46.6,45.2,30.25,NW,308,0.0,0.0,95,0.00,,---,0.00,VWS V14.01,2013-03-29 08:39:00,
2013-03-29 04:44:00,46.5,45.2,30.25,NW,308,0.0,0.0,95,0.00,,---,0.00,VWS V14.01,2013-03-29 08:44:00,
2013-03-29 04:49:00,46.5,45.2,30.25,NW,308,0.0,0.0,95,0.00,,---,0.00,VWS V14.01,2013-03-29 08:49:00,
2013-03-29 04:54:00,46.2,44.8,30.25,NW,307,0.0,0.0,95,0.00,,---,0.00,VWS V14.01,2013-03-29 08:54:00,
2013-03-29 04:59:00,46.2,44.8,30.25,NW,308,0.0,0.0,95,0.00,,---,0.00,VWS V14.01,2013-03-29 08:59:00,
2013-03-29 05:05:00,46.2,44.8,30.25,NW,308,0.0,0.0,95,0.00,,---,0.00,VWS V14.01,2013-03-29 09:05:00,
2013-03-29 05:10:00,46.4,45.3,30.25,NW,307,0.0,0.0,96,0.00,,---,0.00,VWS V14.01,2013-03-29 09:10:00,
2013-03-29 05:15:00,46.4,45.0,30.25,NW,307,0.0,0.0,95,0.00,,---,0.00,VWS V14.01,2013-03-29 09:15:00,
2013-03-29 05:20:00,46.3,45.0,30.25,NW,307,0.0,0.0,95,0.00,,---,0.00,VWS V14.01,2013-03-29 09:20:00,
2013-03-29 05:25:00,46.2,44.8,30.25,NW,308,0.0,0.0,95,0.00,,---,0.00,VWS V14.01,2013-03-29 09:25:00,
2013-03-29 05:30:00,46.1,44.8,30.26,NW,308,0.0,0.0,95,0.00,,---,0.00,VWS V14.01,2013-03-29 09:30:00,
2013-03-29 05:35:00,46.0,44.7,30.26,NW,308,0.0,0.0,95,0.00,,---,0.00,VWS V14.01,2013-03-29 09:35:00,
2013-03-29 05:40:00,46.1,44.8,30.26,NW,309,0.0,1.0,95,0.00,,---,0.00,VWS V14.01,2013-03-29 09:40:00,
2013-03-29 05:45:00,46.0,44.7,30.26,NW,307,0.0,1.0,95,0.00,,---,0.00,VWS V14.01,2013-03-29 09:45:00,
2013-03-29 05:50:00,46.1,44.8,30.26,NW,309,0.0,1.0,95,0.00,,---,0.00,VWS V14.01,2013-03-29 09:50:00,
2013-03-29 05:55:00,46.4,45.3,30.26,NW,311,0.0,1.0,96,0.00,,---,0.00,VWS V14.01,2013-03-29 09:55:00,
2013-03-29 06:00:00,46.5,45.2,30.26,NW,310,0.0,1.0,95,0.00,,---,0.00,VWS V14.01,2013-03-29 10:00:00,
2013-03-29 06:06:00,46.5,45.2,30.26,NW,311,0.0,0.0,95,0.00,,---,0.00,VWS V14.01,2013-03-29 10:06:00,
2013-03-29 06:11:00,46.5,45.2,30.26,NW,311,0.0,0.0,95,0.00,,---,0.00,VWS V14.01,2013-03-29 10:11:00,
2013-03-29 06:16:00,46.3,45.0,30.26,NW,311,0.0,0.0,95,0.00,,---,0.00,VWS V14.01,2013-03-29 10:16:00,
2013-03-29 06:21:00,46.1,44.8,30.27,NW,312,0.0,0.0,95,0.00,,---,0.00,VWS V14.01,2013-03-29 10:21:00,
2013-03-29 06:26:00,45.9,44.5,30.26,NW,312,0.0,0.0,95,0.00,,---,0.00,VWS V14.01,2013-03-29 10:26:00,
2013-03-29 06:31:00,45.9,44.5,30.27,NW,310,0.0,0.0,95,0.00,,---,0.00,VWS V14.01,2013-03-29 10:31:00,
2013-03-29 06:36:00,45.9,44.5,30.27,NW,311,0.0,0.0,95,0.00,,---,0.00,VWS V14.01,2013-03-29 10:36:00,
2013-03-29 06:41:00,45.9,44.5,30.27,NW,311,0.0,0.0,95,0.00,,---,0.00,VWS V14.01,2013-03-29 10:41:00,
2013-03-29 06:47:00,45.7,44.3,30.27,NW,311,0.0,0.0,95,0.00,,---,0.00,VWS V14.01,2013-03-29 10:47:00,
2013-03-29 06:52:00,45.4,44.0,30.27,NW,310,0.0,0.0,95,0.00,,---,0.00,VWS V14.01,2013-03-29 10:52:00,
2013-03-29 06:57:00,45.3,44.0,30.27,NW,311,0.0,0.0,95,0.00,,---,0.00,VWS V14.01,2013-03-29 10:57:00,
2013-03-29 07:02:00,45.1,43.8,30.27,NW,311,0.0,0.0,95,0.00,,---,0.00,VWS V14.01,2013-03-29 11:02:00,
2013-03-29 07:07:00,45.2,44.1,30.27,NW,310,0.0,0.0,96,0.00,,---,0.00,VWS V14.01,2013-03-29 11:07:00,
2013-03-29 07:12:00,45.3,44.2,30.28,NW,311,0.0,0.0,96,0.00,,---,0.00,VWS V14.01,2013-03-29 11:12:00,
2013-03-29 07:17:00,45.5,44.4,30.28,NW,311,0.0,0.0,96,0.00,,---,0.00,VWS V14.01,2013-03-29 11:17:00,
2013-03-29 07:23:00,45.6,44.5,30.28,NW,310,0.0,0.0,96,0.00,,---,0.00,VWS V14.01,2013-03-29 11:23:00,
2013-03-29 07:28:00,45.5,44.4,30.28,NW,310,0.0,0.0,96,0.00,,---,0.00,VWS V14.01,2013-03-29 11:28:00,
2013-03-29 07:33:00,45.5,44.4,30.28,NW,311,0.0,0.0,96,0.00,,---,0.00,VWS V14.01,2013-03-29 11:33:00,
2013-03-29 07:38:00,45.4,44.3,30.28,NW,311,0.0,0.0,96,0.00,,---,0.00,VWS V14.01,2013-03-29 11:38:00,
2013-03-29 07:43:00,45.4,44.3,30.28,NW,311,0.0,0.0,96,0.00,,---,0.00,VWS V14.01,2013-03-29 11:43:00,
2013-03-29 07:48:00,45.5,44.4,30.28,NW,310,0.0,0.0,96,0.00,,---,0.00,VWS V14.01,2013-03-29 11:48:00,
2013-03-29 07:53:00,45.6,44.5,30.28,NW,310,0.0,0.0,96,0.00,,---,0.00,VWS V14.01,2013-03-29 11:53:00,
2013-03-29 07:58:00,45.7,44.6,30.29,NW,310,0.0,0.0,96,0.00,,---,0.00,VWS V14.01,2013-03-29 11:58:00,
2013-03-29 08:03:00,45.9,44.8,30.29,NW,311,0.0,0.0,96,0.00,,---,0.00,VWS V14.01,2013-03-29 12:03:00,
2013-03-29 08:08:00,46.4,45.3,30.29,NW,311,0.0,0.0,96,0.00,,---,0.00,VWS V14.01,2013-03-29 12:08:00,
2013-03-29 08:13:00,47.1,46.0,30.29,NW,321,0.0,1.0,96,0.00,,---,0.00,VWS V14.01,2013-03-29 12:13:00,
2013-03-29 08:18:00,47.9,46.8,30.29,NW,321,0.0,1.0,96,0.00,,---,0.00,VWS V14.01,2013-03-29 12:18:00,
2013-03-29 08:23:00,48.6,47.2,30.30,NW,316,0.0,1.0,95,0.00,,---,0.00,VWS V14.01,2013-03-29 12:23:00,
2013-03-29 08:28:00,49.3,47.4,30.30,NNW,332,0.0,3.0,93,0.00,,---,0.00,VWS V14.01,2013-03-29 12:28:00,
2013-03-29 08:33:00,49.9,47.7,30.30,NNW,335,0.0,1.0,92,0.00,,---,0.00,VWS V14.01,2013-03-29 12:33:00,
2013-03-29 08:38:00,50.5,48.3,30.30,NNE,26,0.0,1.0,92,0.00,,---,0.00,VWS V14.01,2013-03-29 12:38:00,
2013-03-29 08:43:00,51.1,48.3,30.30,NNW,335,0.0,2.0,90,0.00,,---,0.00,VWS V14.01,2013-03-29 12:43:00,
2013-03-29 08:48:00,51.7,48.6,30.31,NNW,339,0.0,2.0,89,0.00,,---,0.00,VWS V14.01,2013-03-29 12:48:00,
2013-03-29 08:53:00,52.5,49.0,30.31,North,359,1.0,2.0,88,0.00,,---,0.00,VWS V14.01,2013-03-29 12:53:00,
2013-03-29 08:59:00,53.2,49.1,30.31,NNW,334,1.0,2.0,86,0.00,,---,0.00,VWS V14.01,2013-03-29 12:59:00,
2013-03-29 09:04:00,53.9,49.5,30.31,North,8,1.0,2.0,85,0.00,,---,0.00,VWS V14.01,2013-03-29 13:04:00,
2013-03-29 09:09:00,54.6,49.9,30.31,NW,321,0.0,2.0,84,0.00,,---,0.00,VWS V14.01,2013-03-29 13:09:00,
2013-03-29 09:14:00,55.3,50.2,30.31,NNW,335,0.0,2.0,83,0.00,,---,0.00,VWS V14.01,2013-03-29 13:14:00,
2013-03-29 09:19:00,56.0,50.6,30.32,NNW,337,2.0,2.0,82,0.00,,---,0.00,VWS V14.01,2013-03-29 13:19:00,
2013-03-29 09:24:00,56.7,50.9,30.32,ENE,59,1.0,2.0,81,0.00,,---,0.00,VWS V14.01,2013-03-29 13:24:00,
2013-03-29 09:29:00,57.6,49.8,30.32,NNW,332,0.0,5.0,75,0.00,,---,0.00,VWS V14.01,2013-03-29 13:29:00,
2013-03-29 09:34:00,58.5,50.2,30.32,North,349,2.0,2.0,74,0.00,,---,0.00,VWS V14.01,2013-03-29 13:34:00,
2013-03-29 09:39:00,59.4,50.8,30.32,North,358,0.0,2.0,73,0.00,,---,0.00,VWS V14.01,2013-03-29 13:39:00,
2013-03-29 09:44:00,60.3,50.5,30.32,NE,36,3.0,3.0,70,0.00,,---,0.00,VWS V14.01,2013-03-29 13:44:00,
2013-03-29 09:49:00,61.4,50.4,30.32,NNW,338,0.0,3.0,67,0.00,,---,0.00,VWS V14.01,2013-03-29 13:49:00,
2013-03-29 09:54:00,62.3,48.7,30.32,NNE,26,3.0,5.0,61,0.00,,---,0.00,VWS V14.01,2013-03-29 13:54:00,
2013-03-29 09:59:00,63.0,48.5,30.32,NE,37,4.0,6.0,59,0.00,,---,0.00,VWS V14.01,2013-03-29 13:59:00,
2013-03-29 10:05:00,63.8,48.8,30.32,North,353,3.0,4.0,58,0.00,,---,0.00,VWS V14.01,2013-03-29 14:05:00,
2013-03-29 10:10:00,64.5,47.5,30.32,East,84,2.0,8.0,54,0.00,,---,0.00,VWS V14.01,2013-03-29 14:10:00,
2013-03-29 10:15:00,65.0,47.5,30.32,NW,314,5.0,8.0,53,0.00,,---,0.00,VWS V14.01,2013-03-29 14:15:00,
2013-03-29 10:20:00,65.4,46.8,30.32,ENE,70,3.0,8.0,51,0.00,,---,0.00,VWS V14.01,2013-03-29 14:20:00,
2013-03-29 10:25:00,65.8,46.1,30.32,ENE,57,7.0,11.0,49,0.00,,---,0.00,VWS V14.01,2013-03-29 14:25:00,
2013-03-29 10:30:00,66.1,45.3,30.32,NNW,341,3.0,12.0,47,0.00,,---,0.00,VWS V14.01,2013-03-29 14:30:00,
2013-03-29 10:35:00,66.4,45.6,30.33,NNW,343,4.0,7.0,47,0.00,,---,0.00,VWS V14.01,2013-03-29 14:35:00,
2013-03-29 10:40:00,66.8,45.9,30.33,SW,215,2.0,7.0,47,0.00,,---,0.00,VWS V14.01,2013-03-29 14:40:00,
2013-03-29 10:45:00,66.9,45.5,30.33,ENE,74,2.0,9.0,46,0.00,,---,0.00,VWS V14.01,2013-03-29 14:45:00,
2013-03-29 10:50:00,66.9,45.5,30.33,NNE,29,9.0,12.0,46,0.00,,---,0.00,VWS V14.01,2013-03-29 14:50:00,
2013-03-29 10:55:00,66.5,45.7,30.33,NNE,18,4.0,12.0,47,0.00,,---,0.00,VWS V14.01,2013-03-29 14:55:00,
2013-03-29 11:00:00,66.7,45.8,30.33,NE,54,4.0,12.0,47,0.00,,---,0.00,VWS V14.01,2013-03-29 15:00:00,
2013-03-29 11:05:00,66.6,45.8,30.33,NNE,32,4.0,10.0,47,0.00,,---,0.00,VWS V14.01,2013-03-29 15:05:00,
2013-03-29 11:11:00,66.6,46.3,30.33,NW,314,2.0,10.0,48,0.00,,---,0.00,VWS V14.01,2013-03-29 15:11:00,
2013-03-29 11:16:00,67.5,46.0,30.33,NE,43,4.0,10.0,46,0.00,,---,0.00,VWS V14.01,2013-03-29 15:16:00,
2013-03-29 11:21:00,67.2,45.2,30.33,NNE,26,8.0,12.0,45,0.00,,---,0.00,VWS V14.01,2013-03-29 15:21:00,
2013-03-29 11:26:00,67.2,46.3,30.33,NW,318,6.0,12.0,47,0.00,,---,0.00,VWS V14.01,2013-03-29 15:26:00,
2013-03-29 11:32:00,67.5,45.4,30.33,NE,48,7.0,12.0,45,0.00,,---,0.00,VWS V14.01,2013-03-29 15:32:00,
2013-03-29 11:37:00,67.9,45.8,30.33,ENE,62,5.0,10.0,45,0.00,,---,0.00,VWS V14.01,2013-03-29 15:37:00,
2013-03-29 11:42:00,67.8,45.7,30.33,NNW,347,2.0,10.0,45,0.00,,---,0.00,VWS V14.01,2013-03-29 15:42:00,
2013-03-29 11:47:00,68.0,45.9,30.32,ENE,59,4.0,10.0,45,0.00,,---,0.00,VWS V14.01,2013-03-29 15:47:00,
2013-03-29 11:52:00,68.1,44.8,30.32,ENE,70,2.0,10.0,43,0.00,,---,0.00,VWS V14.01,2013-03-29 15:52:00,
2013-03-29 11:57:00,68.1,46.0,30.32,NE,49,4.0,10.0,45,0.00,,---,0.00,VWS V14.01,2013-03-29 15:57:00,
2013-03-29 12:02:00,68.3,44.3,30.32,ENE,72,8.0,12.0,42,0.00,,---,0.00,VWS V14.01,2013-03-29 16:02:00,
2013-03-29 12:07:00,68.2,44.9,30.32,NNE,32,6.0,7.0,43,0.00,,---,0.00,VWS V14.01,2013-03-29 16:07:00,
2013-03-29 12:12:00,68.6,44.6,30.31,ENE,73,5.0,9.0,42,0.00,,---,0.00,VWS V14.01,2013-03-29 16:12:00,
2013-03-29 12:17:00,69.1,45.1,30.31,NE,51,2.0,9.0,42,0.00,,---,0.00,VWS V14.01,2013-03-29 16:17:00,
2013-03-29 12:22:00,69.3,45.2,30.31,NE,41,8.0,10.0,42,0.00,,---,0.00,VWS V14.01,2013-03-29 16:22:00,
2013-03-29 12:27:00,69.0,44.3,30.31,ESE,119,2.0,12.0,41,0.00,,---,0.00,VWS V14.01,2013-03-29 16:27:00,
2013-03-29 12:32:00,68.8,45.4,30.31,NE,40,4.0,8.0,43,0.00,,---,0.00,VWS V14.01,2013-03-29 16:32:00,
2013-03-29 12:37:00,68.6,45.2,30.31,NNW,337,2.0,12.0,43,0.00,,---,0.00,VWS V14.01,2013-03-29 16:37:00,
2013-03-29 12:42:00,68.9,43.0,30.31,NNE,22,6.0,12.0,39,0.00,,---,0.00,VWS V14.01,2013-03-29 16:42:00,
2013-03-29 12:48:00,68.9,45.5,30.31,East,101,6.0,12.0,43,0.00,,---,0.00,VWS V14.01,2013-03-29 16:48:00,
2013-03-29 12:52:00,68.9,43.6,30.30,ENE,58,6.0,12.0,40,0.00,,---,0.00,VWS V14.01,2013-03-29 16:52:00,
2013-03-29 12:57:00,69.2,43.2,30.30,NE,45,7.0,12.0,39,0.00,,---,0.00,VWS V14.01,2013-03-29 16:57:00,
2013-03-29 13:03:00,69.2,42.5,30.30,NE,46,6.0,6.0,38,0.00,,---,0.00,VWS V14.01,2013-03-29 17:03:00,
2013-03-29 13:08:00,69.3,44.0,30.29,ESE,113,1.0,7.0,40,0.00,,---,0.00,VWS V14.01,2013-03-29 17:08:00,
2013-03-29 13:13:00,69.4,44.1,30.29,North,350,3.0,12.0,40,0.00,,---,0.00,VWS V14.01,2013-03-29 17:13:00,
2013-03-29 13:18:00,69.1,44.4,30.29,NNE,33,4.0,12.0,41,0.00,,---,0.00,VWS V14.01,2013-03-29 17:18:00,
2013-03-29 13:23:00,68.9,43.6,30.29,North,6,4.0,16.0,40,0.00,,---,0.00,VWS V14.01,2013-03-29 17:23:00,
2013-03-29 13:28:00,68.7,42.8,30.29,NE,36,5.0,16.0,39,0.00,,---,0.00,VWS V14.01,2013-03-29 17:28:00,
2013-03-29 13:33:00,68.9,43.6,30.29,NE,39,1.0,6.0,40,0.00,,---,0.00,VWS V14.01,2013-03-29 17:33:00,
2013-03-29 13:38:00,69.7,44.3,30.29,ENE,59,8.0,11.0,40,0.00,,---,0.00,VWS V14.01,2013-03-29 17:38:00,
2013-03-29 13:43:00,69.5,45.4,30.28,NE,37,6.0,11.0,42,0.00,,---,0.00,VWS V14.01,2013-03-29 17:43:00,
2013-03-29 13:48:00,69.5,43.5,30.28,NE,51,2.0,11.0,39,0.00,,---,0.00,VWS V14.01,2013-03-29 17:48:00,
2013-03-29 13:53:00,69.9,45.2,30.28,NNE,29,8.0,11.0,41,0.00,,---,0.00,VWS V14.01,2013-03-29 17:53:00,
2013-03-29 13:58:00,69.8,44.4,30.28,ENE,71,7.0,11.0,40,0.00,,---,0.00,VWS V14.01,2013-03-29 17:58:00,
2013-03-29 14:03:00,69.1,43.1,30.28,North,357,1.0,7.0,39,0.00,,---,0.00,VWS V14.01,2013-03-29 18:03:00,
2013-03-29 14:08:00,69.5,43.5,30.27,ENE,68,7.0,11.0,39,0.00,,---,0.00,VWS V14.01,2013-03-29 18:08:00,
2013-03-29 14:13:00,69.7,43.0,30.27,ESE,105,2.0,11.0,38,0.00,,---,0.00,VWS V14.01,2013-03-29 18:13:00,
2013-03-29 14:19:00,69.7,42.3,30.27,SE,124,3.0,11.0,37,0.00,,---,0.00,VWS V14.01,2013-03-29 18:19:00,
2013-03-29 14:24:00,69.8,42.4,30.27,ENE,59,6.0,11.0,37,0.00,,---,0.00,VWS V14.01,2013-03-29 18:24:00,
2013-03-29 14:29:00,69.9,43.8,30.26,NNE,32,6.0,11.0,39,0.00,,---,0.00,VWS V14.01,2013-03-29 18:29:00,
2013-03-29 14:34:00,69.9,44.5,30.26,ENE,65,7.0,10.0,40,0.00,,---,0.00,VWS V14.01,2013-03-29 18:34:00,
2013-03-29 14:39:00,70.0,41.1,30.26,NNE,29,2.0,10.0,35,0.00,,---,0.00,VWS V14.01,2013-03-29 18:39:00,
2013-03-29 14:44:00,69.7,41.6,30.26,ENE,76,3.0,10.0,36,0.00,,---,0.00,VWS V14.01,2013-03-29 18:44:00,
2013-03-29 14:49:00,69.5,42.8,30.26,NNE,32,7.0,10.0,38,0.00,,---,0.00,VWS V14.01,2013-03-29 18:49:00,
2013-03-29 14:54:00,69.4,42.0,30.25,North,352,3.0,12.0,37,0.00,,---,0.00,VWS V14.01,2013-03-29 18:54:00,
2013-03-29 14:59:00,69.4,42.0,30.25,East,79,1.0,12.0,37,0.00,,---,0.00,VWS V14.01,2013-03-29 18:59:00,
2013-03-29 15:04:00,69.7,43.0,30.25,North,357,2.0,7.0,38,0.00,,---,0.00,VWS V14.01,2013-03-29 19:04:00,
2013-03-29 15:09:00,70.3,43.5,30.25,East,80,7.0,7.0,38,0.00,,---,0.00,VWS V14.01,2013-03-29 19:09:00,
2013-03-29 15:14:00,70.0,41.8,30.25,East,101,2.0,11.0,36,0.00,,---,0.00,VWS V14.01,2013-03-29 19:14:00,
2013-03-29 15:19:00,69.9,41.0,30.25,SE,142,3.0,14.0,35,0.00,,---,0.00,VWS V14.01,2013-03-29 19:19:00,
2013-03-29 15:24:00,70.2,42.7,30.25,NNE,26,3.0,14.0,37,0.00,,---,0.00,VWS V14.01,2013-03-29 19:24:00,
2013-03-29 15:29:00,70.2,39.8,30.25,ESE,112,7.0,14.0,33,0.00,,---,0.00,VWS V14.01,2013-03-29 19:29:00,
2013-03-29 15:34:00,70.4,40.7,30.25,ENE,65,4.0,7.0,34,0.00,,---,0.00,VWS V14.01,2013-03-29 19:34:00,
2013-03-29 15:39:00,70.4,42.2,30.25,ESE,105,1.0,9.0,36,0.00,,---,0.00,VWS V14.01,2013-03-29 19:39:00,
2013-03-29 15:44:00,70.3,42.8,30.24,NE,36,5.0,9.0,37,0.00,,---,0.00,VWS V14.01,2013-03-29 19:44:00,
2013-03-29 15:49:00,70.7,42.5,30.24,NE,51,8.0,10.0,36,0.00,,---,0.00,VWS V14.01,2013-03-29 19:49:00,
2013-03-29 15:54:00,70.7,41.7,30.25,ENE,65,6.0,10.0,35,0.00,,---,0.00,VWS V14.01,2013-03-29 19:54:00,
2013-03-29 16:00:00,70.3,41.4,30.24,ENE,58,5.0,10.0,35,0.00,,---,0.00,VWS V14.01,2013-03-29 20:00:00,
2013-03-29 16:05:00,70.1,44.0,30.24,ENE,64,6.0,10.0,39,0.00,,---,0.00,VWS V14.01,2013-03-29 20:05:00,
2013-03-29 16:10:00,70.1,42.7,30.24,NE,47,11.0,12.0,37,0.00,,---,0.00,VWS V14.01,2013-03-29 20:10:00,
2013-03-29 16:15:00,70.1,42.7,30.24,NE,34,10.0,12.0,37,0.00,,---,0.00,VWS V14.01,2013-03-29 20:15:00,
2013-03-29 16:20:00,69.9,41.8,30.24,NNE,29,3.0,14.0,36,0.00,,---,0.00,VWS V14.01,2013-03-29 20:20:00,
2013-03-29 16:25:00,70.4,42.2,30.24,ENE,70,3.0,14.0,36,0.00,,---,0.00,VWS V14.01,2013-03-29 20:25:00,
2013-03-29 16:30:00,70.1,39.7,30.24,SSE,152,2.0,14.0,33,0.00,,---,0.00,VWS V14.01,2013-03-29 20:30:00,
2013-03-29 16:35:00,70.5,41.6,30.24,NE,44,7.0,8.0,35,0.00,,---,0.00,VWS V14.01,2013-03-29 20:35:00,
2013-03-29 16:40:00,70.1,40.5,30.24,NNE,26,5.0,10.0,34,0.00,,---,0.00,VWS V14.01,2013-03-29 20:40:00,
2013-03-29 16:45:00,70.0,43.2,30.23,NE,43,5.0,10.0,38,0.00,,---,0.00,VWS V14.01,2013-03-29 20:45:00,
2013-03-29 16:50:00,69.8,42.4,30.23,NNE,26,3.0,10.0,37,0.00,,---,0.00,VWS V14.01,2013-03-29 20:50:00,
2013-03-29 16:55:00,69.7,41.6,30.23,ESE,115,1.0,10.0,36,0.00,,---,0.00,VWS V14.01,2013-03-29 20:55:00,
2013-03-29 17:00:00,69.7,39.3,30.23,NE,37,3.0,10.0,33,0.00,,---,0.00,VWS V14.01,2013-03-29 21:00:00,
2013-03-29 17:05:00,70.1,41.9,30.23,NE,43,4.0,6.0,36,0.00,,---,0.00,VWS V14.01,2013-03-29 21:05:00,
2013-03-29 17:10:00,69.7,43.0,30.23,ENE,65,8.0,10.0,38,0.00,,---,0.00,VWS V14.01,2013-03-29 21:10:00,
2013-03-29 17:16:00,69.4,41.3,30.23,ENE,78,4.0,10.0,36,0.00,,---,0.00,VWS V14.01,2013-03-29 21:16:00,
2013-03-29 17:21:00,69.7,40.1,30.23,ENE,71,7.0,10.0,34,0.00,,---,0.00,VWS V14.01,2013-03-29 21:21:00,
2013-03-29 17:26:00,69.3,43.3,30.23,ENE,64,3.0,10.0,39,0.00,,---,0.00,VWS V14.01,2013-03-29 21:26:00,
2013-03-29 17:31:00,69.1,41.8,30.23,ENE,72,5.0,10.0,37,0.00,,---,0.00,VWS V14.01,2013-03-29 21:31:00,
2013-03-29 17:37:00,69.2,42.5,30.22,ENE,64,9.0,9.0,38,0.00,,---,0.00,VWS V14.01,2013-03-29 21:37:00,
2013-03-29 17:42:00,68.9,40.9,30.22,ENE,63,7.0,10.0,36,0.00,,---,0.00,VWS V14.01,2013-03-29 21:42:00,
2013-03-29 17:47:00,68.9,43.0,30.22,ENE,68,8.0,11.0,39,0.00,,---,0.00,VWS V14.01,2013-03-29 21:47:00,
2013-03-29 17:52:00,68.6,43.3,30.22,ENE,70,3.0,11.0,40,0.00,,---,0.00,VWS V14.01,2013-03-29 21:52:00,
2013-03-29 17:57:00,68.7,44.1,30.22,ENE,72,1.0,11.0,41,0.00,,---,0.00,VWS V14.01,2013-03-29 21:57:00,
2013-03-29 18:02:00,68.5,43.9,30.22,SE,136,1.0,2.0,41,0.00,,---,0.00,VWS V14.01,2013-03-29 22:02:00,
2013-03-29 18:07:00,68.6,44.6,30.22,East,84,4.0,7.0,42,0.00,,---,0.00,VWS V14.01,2013-03-29 22:07:00,
2013-03-29 18:12:00,68.6,44.6,30.22,ESE,110,1.0,7.0,42,0.00,,---,0.00,VWS V14.01,2013-03-29 22:12:00,
2013-03-29 18:17:00,68.4,45.7,30.22,SE,129,1.0,9.0,44,0.00,,---,0.00,VWS V14.01,2013-03-29 22:17:00,
2013-03-29 18:22:00,68.4,46.2,30.22,ENE,61,2.0,9.0,45,0.00,,---,0.00,VWS V14.01,2013-03-29 22:22:00,
2013-03-29 18:27:00,68.1,46.0,30.22,ESE,116,1.0,9.0,45,0.00,,---,0.00,VWS V14.01,2013-03-29 22:27:00,
2013-03-29 18:33:00,68.0,45.9,30.22,NNE,32,2.0,7.0,45,0.00,,---,0.00,VWS V14.01,2013-03-29 22:33:00,
2013-03-29 18:38:00,67.5,46.6,30.23,ENE,78,3.0,8.0,47,0.00,,---,0.00,VWS V14.01,2013-03-29 22:38:00,
2013-03-29 18:43:00,67.4,47.0,30.22,NE,44,3.0,8.0,48,0.00,,---,0.00,VWS V14.01,2013-03-29 22:43:00,
2013-03-29 18:48:00,67.3,47.0,30.22,East,80,2.0,8.0,48,0.00,,---,0.00,VWS V14.01,2013-03-29 22:48:00,
2013-03-29 18:53:00,67.0,47.2,30.22,East,86,1.0,8.0,49,0.00,,---,0.00,VWS V14.01,2013-03-29 22:53:00,
2013-03-29 18:58:00,66.6,47.4,30.22,ESE,107,2.0,8.0,50,0.00,,---,0.00,VWS V14.01,2013-03-29 22:58:00,
2013-03-29 19:03:00,66.3,47.7,30.22,NE,50,1.0,3.0,51,0.00,,---,0.00,VWS V14.01,2013-03-29 23:03:00,
2013-03-29 19:08:00,65.9,47.8,30.23,NE,36,4.0,7.0,52,0.00,,---,0.00,VWS V14.01,2013-03-29 23:08:00,
2013-03-29 19:13:00,65.7,47.6,30.23,NE,51,3.0,7.0,52,0.00,,---,0.00,VWS V14.01,2013-03-29 23:13:00,
2013-03-29 19:18:00,65.5,47.4,30.23,NNE,32,5.0,8.0,52,0.00,,---,0.00,VWS V14.01,2013-03-29 23:18:00,
2013-03-29 19:23:00,65.2,47.7,30.23,ENE,70,2.0,8.0,53,0.00,,---,0.00,VWS V14.01,2013-03-29 23:23:00,
2013-03-29 19:28:00,65.0,48.0,30.23,ENE,68,3.0,8.0,54,0.00,,---,0.00,VWS V14.01,2013-03-29 23:28:00,
2013-03-29 19:33:00,64.8,48.3,30.23,NNE,29,2.0,6.0,55,0.00,,---,0.00,VWS V14.01,2013-03-29 23:33:00,
2013-03-29 19:38:00,64.5,48.5,30.23,NE,47,2.0,6.0,56,0.00,,---,0.00,VWS V14.01,2013-03-29 23:38:00,
2013-03-29 19:43:00,64.3,48.8,30.23,NE,39,2.0,6.0,57,0.00,,---,0.00,VWS V14.01,2013-03-29 23:43:00,
2013-03-29 19:48:00,63.9,48.8,30.24,ENE,63,1.0,6.0,58,0.00,,---,0.00,VWS V14.01,2013-03-29 23:48:00,
2013-03-29 19:54:00,63.7,49.1,30.23,ENE,72,0.0,6.0,59,0.00,,---,0.00,VWS V14.01,2013-03-29 23:54:00,
2013-03-29 19:59:00,63.3,49.2,30.23,NE,47,1.0,1.0,60,0.00,,---,0.00,VWS V14.01,2013-03-29 23:59:00,
2013-03-29 20:04:00,62.9,48.8,30.24,NE,54,0.0,0.0,60,0.00,,---,0.00,VWS V14.01,2013-03-30 00:04:00,
2013-03-29 20:09:00,62.4,48.3,30.24,NE,54,0.0,1.0,60,0.00,,---,0.00,VWS V14.01,2013-03-30 00:09:00,
2013-03-29 20:14:00,61.8,48.7,30.24,NE,54,0.0,1.0,62,0.00,,---,0.00,VWS V14.01,2013-03-30 00:14:00,
2013-03-29 20:19:00,61.6,48.5,30.24,NE,54,0.0,1.0,62,0.00,,---,0.00,VWS V14.01,2013-03-30 00:19:00,
2013-03-29 20:24:00,61.4,48.7,30.24,NE,54,0.0,1.0,63,0.00,,---,0.00,VWS V14.01,2013-03-30 00:24:00,
2013-03-29 20:29:00,61.1,48.8,30.24,NE,54,0.0,1.0,64,0.00,,---,0.00,VWS V14.01,2013-03-30 00:29:00,
2013-03-29 20:34:00,60.5,48.7,30.24,NE,54,0.0,1.0,65,0.00,,---,0.00,VWS V14.01,2013-03-30 00:34:00,
2013-03-29 20:39:00,60.6,49.2,30.24,NNE,26,1.0,3.0,66,0.00,,---,0.00,VWS V14.01,2013-03-30 00:39:00,
2013-03-29 20:44:00,60.9,49.1,30.24,NE,49,0.0,3.0,65,0.00,,---,0.00,VWS V14.01,2013-03-30 00:44:00,
2013-03-29 20:49:00,60.8,49.0,30.24,NE,50,0.0,3.0,65,0.00,,---,0.00,VWS V14.01,2013-03-30 00:49:00,
2013-03-29 20:54:00,60.5,48.7,30.24,NE,50,0.0,3.0,65,0.00,,---,0.00,VWS V14.01,2013-03-30 00:54:00,
2013-03-29 20:59:00,60.4,49.0,30.24,NE,49,0.0,3.0,66,0.00,,---,0.00,VWS V14.01,2013-03-30 00:59:00,
2013-03-29 21:05:00,60.3,48.9,30.24,NE,50,0.0,0.0,66,0.00,,---,0.00,VWS V14.01,2013-03-30 01:05:00,
2013-03-29 21:10:00,59.9,48.9,30.25,NE,50,0.0,0.0,67,0.00,,---,0.00,VWS V14.01,2013-03-30 01:10:00,
2013-03-29 21:15:00,59.3,48.8,30.25,NE,50,0.0,0.0,68,0.00,,---,0.00,VWS V14.01,2013-03-30 01:15:00,
2013-03-29 21:20:00,58.7,48.6,30.25,NE,50,0.0,0.0,69,0.00,,---,0.00,VWS V14.01,2013-03-30 01:20:00,
2013-03-29 21:25:00,58.1,48.8,30.25,NE,50,0.0,0.0,71,0.00,,---,0.00,VWS V14.01,2013-03-30 01:25:00,
2013-03-29 21:30:00,57.6,49.0,30.25,NE,50,0.0,0.0,73,0.00,,---,0.00,VWS V14.01,2013-03-30 01:30:00,
2013-03-29 21:35:00,57.2,49.0,30.25,NE,50,0.0,0.0,74,0.00,,---,0.00,VWS V14.01,2013-03-30 01:35:00,
2013-03-29 21:40:00,56.8,48.6,30.25,NE,50,0.0,0.0,74,0.00,,---,0.00,VWS V14.01,2013-03-30 01:40:00,
2013-03-29 21:45:00,56.4,48.6,30.25,NE,50,0.0,0.0,75,0.00,,---,0.00,VWS V14.01,2013-03-30 01:45:00,
2013-03-29 21:50:00,56.0,48.2,30.25,NE,50,0.0,0.0,75,0.00,,---,0.00,VWS V14.01,2013-03-30 01:50:00,
2013-03-29 21:55:00,55.6,47.8,30.25,NE,50,0.0,0.0,75,0.00,,---,0.00,VWS V14.01,2013-03-30 01:55:00,
2013-03-29 22:00:00,55.4,48.3,30.25,NE,49,0.0,0.0,77,0.00,,---,0.00,VWS V14.01,2013-03-30 02:00:00,
2013-03-29 22:05:00,55.3,48.6,30.25,NE,50,0.0,0.0,78,0.00,,---,0.00,VWS V14.01,2013-03-30 02:05:00,
2013-03-29 22:10:00,55.1,48.7,30.25,NE,49,0.0,0.0,79,0.00,,---,0.00,VWS V14.01,2013-03-30 02:10:00,
2013-03-29 23:00:00,53.0,48.3,30.26,North,0,0.0,0.0,84,0.00,,---,0.00,VWS V14.01,2013-03-30 03:00:00,
2013-03-29 23:49:00,53.0,48.3,30.26,North,0,0.0,0.0,84,0.00,,---,0.00,VWS V14.01,2013-03-30 03:49:00,
2013-03-29 23:54:00,50.9,47.5,30.26,NE,50,0.0,0.0,88,0.00,,---,0.00,VWS V14.01,2013-03-30 03:54:00,
2013-03-29 23:59:00,50.8,47.4,30.26,NE,50,0.0,0.0,88,0.00,,---,0.00,VWS V14.01,2013-03-30 03:59:00,